"Pseudo-MPEC" for CAXY3A2

Created 2024 Oct 3 19:22:07 UT using Find_Orb

Click here for an explanation of pseudo-MPECs

 
 Astrometry: 
     CAXY3A2*1C2024 10 02.20826823 13 46.679+26 08 45.02   ~A25q 18.47GVNEOCPG96
     CAXY3A2 1C2024 10 02.21957023 14 16.976+26 05 52.19   ~A25q 18.33GVNEOCPG96
     CAXY3A2 1C2024 10 02.22523523 14 32.388+26 04 23.81   ~A25q 18.51GVNEOCPG96
     CAXY3A2  C2024 10 02.24343623 15 19.840+25 59 34.80   ~A26b 18.6 GVNEOCPH01
     CAXY3A2  C2024 10 02.24672923 15 28.619+25 58 43.64   ~A26b 18.7 GVNEOCPH01
     CAXY3A2  C2024 10 02.25780623 15 58.158+25 55 51.00   ~A26b 18.2 GVNEOCPH01
     CAXY3A2  C2024 10 02.26409123 16 14.814+25 54 13.16   ~A26b 18.5 GVNEOCPH01
     CAXY3A2 KC2024 10 02.32140 23 18 46.15 +25 39 25.0    ~A2CM 18.7 GVNEOCPV21
     CAXY3A2 KC2024 10 02.33411 23 19 19.43 +25 36 03.6    ~A2CM 18.5 GVNEOCPV21
     CAXY3A2 KC2024 10 02.34351 23 19 43.99 +25 33 34.9    ~A2CM 18.2 GVNEOCPV21
     CAXY3A2 KC2024 10 02.44267923 24 01.321+25 07 15.24   ~A2Bb 19.02GVNEOCPI52
     CAXY3A2 KC2024 10 02.44914223 24 17.996+25 05 32.28   ~A2Bb 18.87GVNEOCPI52
     CAXY3A2 KC2024 10 02.45561623 24 34.693+25 03 48.82   ~A2Bb 19.00GVNEOCPI52
     CAXY3A2 KC2024 10 02.46206923 24 51.311+25 02 05.86   ~A2Bb 18.84GVNEOCPI52
     CAXY3A2 1C2024 10 02.78925 23 38 41.82 +23 39 30.2    ~A2Jqx19.0 GVNEOCPC40
     CAXY3A2 1C2024 10 02.79587 23 38 56.72 +23 37 52.8    ~A2Jqx18.7 GVNEOCPC40
     CAXY3A2 1C2024 10 02.80241 23 39 11.44 +23 36 16.2    ~A2Jqx18.9 GVNEOCPC40
     CAXY3A2 KB2024 10 02.83693723 40 28.70 +23 27 33.1    ~A2Kq 18.9 GXNEOCPL76
     CAXY3A2 KB2024 10 02.83987923 40 35.23 +23 26 49.1    ~A2Kq 19.2 GXNEOCPL76
     CAXY3A2 KB2024 10 02.84268223 40 41.45 +23 26 07.3    ~A2Kq 19.1 GXNEOCPL76
     CAXY3A2 KB2024 10 02.92267323 43 46.39 +23 06 32.2    ~A2Mb 19.0 GXNEOCPI93
     CAXY3A2 KB2024 10 02.92495223 43 51.30 +23 05 58.8    ~A2Mb 18.9 GXNEOCPI93
     CAXY3A2 KB2024 10 02.92721923 43 56.22 +23 05 25.5    ~A2Mb 18.4 GXNEOCPI93
     CAXY3A2 KB2024 10 02.92942623 44 00.96 +23 04 53.3    ~A2Mb 18.7 GXNEOCPI93
     CAXY3A2 KB2024 10 02.98206723 45 53.73 +22 52 04.5    ~A307 18.9 GXNEOCP958
     CAXY3A2 KB2024 10 02.98667923 46 03.44 +22 50 56.2    ~A307 19.0 GXNEOCP958
     CAXY3A2 KB2024 10 02.98992323 46 10.31 +22 50 08.7    ~A307 18.6 GXNEOCP958
     CAXY3A2 KB2024 10 03.06095 23 48 58.99 +22 32 48.6    ~A35b 19.3 VZNEOCPW13
     CAXY3A2 KB2024 10 03.06887 23 49 15.49 +22 30 56.7    ~A35b 19.2 VZNEOCPW13
     CAXY3A2 KB2024 10 03.07367 23 49 25.46 +22 29 49.3    ~A35b 19.0 VZNEOCPW13
     CAXY3A2 KC2024 10 03.07879723 49 36.29 +22 28 33.3    ~A32b 18.9 GVNEOCPH21
     CAXY3A2 KC2024 10 03.08055323 49 39.92 +22 28 08.6    ~A32b 18.9 GVNEOCPH21
     CAXY3A2 KC2024 10 03.08230723 49 43.55 +22 27 44.3    ~A32b 18.9 GVNEOCPH21
     CAXY3A2 KC2024 10 03.08394623 49 46.93 +22 27 21.2    ~A32b 18.9 GVNEOCPH21
     CAXY3A2 KB2024 10 03.15729 23 52 17.868+22 10 03.68   ~A34M 18.8 rZNEOCPH36
     CAXY3A2 KB2024 10 03.16082 23 52 24.943+22 09 13.54   ~A34M 19.1 rZNEOCPH36
     CAXY3A2 KB2024 10 03.16438 23 52 32.052+22 08 24.18   ~A34M 19.5 rZNEOCPH36
     CAXY3A2 1C2024 10 03.23225723 54 49.705+21 52 52.14   ~A36M 18.57GVNEOCPG96
     CAXY3A2 1C2024 10 03.24273023 55 10.031+21 50 24.76   ~A36M 18.99GVNEOCPG96
     CAXY3A2 1C2024 10 03.24797023 55 20.111+21 49 11.64   ~A36M 18.77GVNEOCPG96

Station data:
(958) Observatoire de Dax  (N43.693381 W1.030530)  France.  Observer P.
   Dupouy. 0.32-m Schmidt-Cassegrain.
(C40) Kuban State University Astrophysical Observatory  (N45.019544
   E39.030800)  Russia.  Observer A. Ivanov. 0.51-m f/8 reflector + CCD.
(G96) Mt. Lemmon Survey  (N32.442729 W110.788720)  US/Arizona.  Observer E.
   J. Christensen. 1.5-m reflector + 10K CCD.
(H01) Magdalena Ridge Observatory, Socorro  (N33.984833 W107.189333)  US/New
   Mexico.  Observers W. H. Ryan, E. V. Ryan. Measurer W. H. Ryan. 2.4-m
   f/8.9 reflector + CCD.
(H21) Astronomical Research Observatory, Westfield  (N39.483054 W87.968270)
   US/Illinois.  Observer R. Holmes. Measurers S. Foglia, L. Buzzi, T.
   Linder, R. Holmes. 0.76-m f/3.0 astrograph + CCD0.81-m f/4.0 astrograph +
   CCD0.61-m f/4.5 astrograph + CCD0.40-m f/5.32 astrograph + CCD.
(H36) Sandlot Observatory, Scranton  (N38.797718 W95.706550)  US/Kansas.
   Observer G. Hug. 0.56-m reflector + CCD.
(I52) Steward Observatory, Mt. Lemmon Station  (N32.442570 W110.788920)
   US/Arizona.  Observers T. A. Pruyne, B. M. Africano, E. J. Christensen, G.
   A. Farneth, D. C. Fuls, A. R. Gibbs, A. D. Grauer, H. Gröller, J. A.
   Johnson, R. A. Kowalski, S. M. Larson, G. J. Leonard, D. Rankin, R. L.
   Seaman, F. C. Shelly, K. W. Wierzchoś. 1.0-m prime focus + CCD.
(I93) St Pardon de Conques  (N44.558670 W0.202960)  France.  Observers F.
   Losse, W. D'Anna. Measurer F. Losse. 0.40-m f/3.7 reflector + CCD.
(L76) Nomad Observatory, Kochevanchik  (N46.976193 E39.651610)  Russia.
   Observer E. Romas. 0.2-m f/5 reflector + CCD.
(V21) Cewanee Observatory at DSNM  (N31.946619 W108.897690)  US/New Mexico.
   Observer D. T. Durig. 0.4-m f/8 Ritchey-Chrétien + 4656x3520 CCD.
(W13) Star Quarry Observatory, Bedford  (N38.977039 W86.526390)  US/Indiana.

Orbital elements:  CAXY3A2
   Perihelion 2024 Sep 1.19600 +/- 0.00927 TT =  4:42:14 (JD 2460554.69600)
Epoch 2024 Oct  3.0 TT = JDT 2460586.5   Earth MOID: 0.0226      AutoNEOCP
M   9.48065026 +/- 0.028            (J2000 ecliptic)
n   0.29809612 +/- 0.000818         Peri.  133.42813 +/- 0.008
a   2.21938080 +/- 0.00408          Node   195.82079 +/- 0.0013
e   0.5763811 +/- 0.000799          Incl.    6.48088 +/- 0.007
P   3.30634                H 25.39  G  0.15   U  8.0
q 0.94017147 +/- 6.15e-5    Q 3.49859012 +/- 0.0082
37 of 40 observations 2024 Oct. 2-3 (25.0 hr); mean residual 0".44
Residuals in arcseconds: 
241002 G96  .47+  .26-    241002 C40( 2.3-  1.2+)   241003 W13  .34-  .22-    
241002 G96  1.5-  .69+    241002 C40( 2.9-  1.8+)   241003 W13  .37-  .07+    
241002 G96  1.1+  .39-    241002 C40( 3.1-  2.1+)   241003 H21  .22-  .10-    
241002 H01  .07+  .00     241002 L76  .45+  .04+    241003 H21  .31-  .04-    
241002 H01  .04-  .01+    241002 L76  .28+  .21-    241003 H21  .29-  .39+    
241002 H01  .52+  .19-    241002 L76  .17+  .32-    241003 H21  .39-  .40+    
241002 H01  .04-  .02+    241002 I93  .23-  .31+    241003 H36  .83+  .46-    
241002 V21  .66-  .36+    241002 I93  .43-  .29+    241003 H36  1.1+  .87-    
241002 V21  .05+  .14-    241002 I93  .07-  .19+    241003 H36  1.1+  .06-    
241002 V21  .46+  .02+    241002 I93  .36-  .31+    241003 G96  .86-  .48+    
241002 I52  .44-  .30-    241002 958  .72+  .20+    241003 G96  .18-  .01-    
241002 I52  .23-  .00     241002 958  .04-  .29-    241003 G96  .68-  .40+    
241002 I52  .01-  .02-    241002 958  .08+  .09-    
241002 I52  .04-  .12+    241003 W13  .23-  .01+    

Ephemerides (geocentric):
Date (UTC) HH   RA             Dec           delta  r     elong  mag " sig PA
---- --------  ------------   ------------  ------ ------ -----  --- --------
2024 10 03 19  00 12 09.973   +19 47 45.84  .03598 1.0349 163.1 19.1 .596 121
2024 10 03 20  00 13 20.640   +19 38 52.29  .03618 1.0351 163.3 19.1 .628 121
2024 10 03 21  00 14 30.397   +19 30 02.88  .03638 1.0354 163.6 19.1 .662 121
2024 10 03 22  00 15 39.257   +19 21 17.63  .03658 1.0356 163.8 19.1 .695 120
2024 10 03 23  00 16 47.236   +19 12 36.54  .03679 1.0358 164.1 19.1 .729 120
2024 10 04 00  00 17 54.346   +19 03 59.61  .03699 1.0360 164.3 19.1 .763 120
2024 10 04 01  00 19 00.600   +18 55 26.85  .03720 1.0363 164.5 19.2 .798 120
2024 10 04 02  00 20 06.012   +18 46 58.24  .03741 1.0365 164.7 19.2 .833 120
2024 10 04 03  00 21 10.594   +18 38 33.79  .03761 1.0367 165.0 19.2 .868 120
2024 10 04 04  00 22 14.359   +18 30 13.50  .03782 1.0369 165.2 19.2 .903 120
2024 10 04 05  00 23 17.320   +18 21 57.34  .03803 1.0372 165.4 19.2 .939 120
2024 10 04 06  00 24 19.489   +18 13 45.33  .03825 1.0374 165.6 19.2 .974 120
2024 10 04 07  00 25 20.879   +18 05 37.44  .03846 1.0376 165.8 19.2 1.01 120
2024 10 04 08  00 26 21.500   +17 57 33.65  .03867 1.0378 166.0 19.2 1.05 120
2024 10 04 09  00 27 21.366   +17 49 33.97  .03889 1.0381 166.2 19.2 1.08 120
2024 10 04 10  00 28 20.487   +17 41 38.37  .03910 1.0383 166.4 19.2 1.12 120
2024 10 04 11  00 29 18.876   +17 33 46.84  .03932 1.0385 166.6 19.2 1.16 120
2024 10 04 12  00 30 16.544   +17 25 59.36  .03953 1.0387 166.8 19.2 1.19 120
2024 10 04 13  00 31 13.501   +17 18 15.90  .03975 1.0390 166.9 19.2 1.23 120
2024 10 04 14  00 32 09.759   +17 10 36.46  .03997 1.0392 167.1 19.2 1.26 120
2024 10 04 15  00 33 05.328   +17 03 01.01  .04019 1.0394 167.3 19.2 1.30 120
2024 10 04 16  00 34 00.220   +16 55 29.52  .04041 1.0397 167.5 19.2 1.34 120
2024 10 04 17  00 34 54.444   +16 48 01.98  .04063 1.0399 167.6 19.2 1.37 120
2024 10 04 18  00 35 48.011   +16 40 38.36  .04085 1.0401 167.8 19.2 1.41 120
2024 10 04 19  00 36 40.931   +16 33 18.63  .04108 1.0404 168.0 19.3 1.45 120
2024 10 04 20  00 37 33.214   +16 26 02.78  .04130 1.0406 168.1 19.3 1.49 120
2024 10 04 21  00 38 24.870   +16 18 50.78  .04152 1.0408 168.3 19.3 1.52 120
2024 10 04 22  00 39 15.908   +16 11 42.59  .04175 1.0410 168.4 19.3 1.56 120
2024 10 04 23  00 40 06.338   +16 04 38.20  .04198 1.0413 168.6 19.3 1.60 120
2024 10 05 00  00 40 56.170   +15 57 37.58  .04220 1.0415 168.7 19.3 1.63 120
2024 10 05 01  00 41 45.412   +15 50 40.69  .04243 1.0417 168.9 19.3 1.67 120
2024 10 05 02  00 42 34.073   +15 43 47.51  .04266 1.0420 169.0 19.3 1.70 120
2024 10 05 03  00 43 22.163   +15 36 58.02  .04289 1.0422 169.1 19.3 1.74 120
2024 10 05 04  00 44 09.689   +15 30 12.18  .04311 1.0424 169.3 19.3 1.78 120
2024 10 05 05  00 44 56.662   +15 23 29.96  .04334 1.0427 169.4 19.3 1.81 120
2024 10 05 06  00 45 43.088   +15 16 51.34  .04358 1.0429 169.5 19.3 1.85 120
2024 10 05 07  00 46 28.977   +15 10 16.28  .04381 1.0431 169.6 19.3 1.89 120
2024 10 05 08  00 47 14.336   +15 03 44.76  .04404 1.0434 169.8 19.3 1.92 120
2024 10 05 09  00 47 59.173   +14 57 16.74  .04427 1.0436 169.9 19.3 1.96 120
2024 10 05 10  00 48 43.497   +14 50 52.20  .04450 1.0438 170.0 19.4 1.99 120
2024 10 05 11  00 49 27.315   +14 44 31.10  .04474 1.0440 170.1 19.4 2.03 120
2024 10 05 12  00 50 10.634   +14 38 13.42  .04497 1.0443 170.2 19.4 2.06 120
2024 10 05 13  00 50 53.463   +14 31 59.12  .04521 1.0445 170.3 19.4 2.10 120
2024 10 05 14  00 51 35.808   +14 25 48.17  .04544 1.0447 170.4 19.4 2.14 120
2024 10 05 15  00 52 17.677   +14 19 40.54  .04568 1.0450 170.5 19.4 2.17 120
2024 10 05 16  00 52 59.077   +14 13 36.21  .04592 1.0452 170.6 19.4 2.21 120
2024 10 05 17  00 53 40.015   +14 07 35.14  .04615 1.0454 170.7 19.4 2.24 120
2024 10 05 18  00 54 20.497   +14 01 37.29  .04639 1.0457 170.8 19.4 2.28 120